Saint Petersburg, FL

4:11 PM EST on March 01, 2017 (GMT -0500)
Whitted

Weather History for KSPG - January, 2014

Change the Weather History Date:

Friday, January 17, 2014

  Actual Average Record
Temperature  
Mean Temperature 54 °F -  
Max Temperature 61 °F 69 °F 81 °F (1949)
Min Temperature 48 °F 52 °F 34 °F (1959)
Degree Days  
Heating Degree Days 10    
Growing Degree Days 4 (Base 50)    
Moisture  
Dew Point 45 °F    
Average Humidity 71    
Maximum Humidity 97    
Minimum Humidity 59    
Precipitation  
Precipitation 0.00 in - - ()
Sea Level Pressure  
Sea Level Pressure 30.16 in    
Wind  
Wind Speed 5 mph (South)    
Max Wind Speed 12 mph    
Max Gust Speed -    
Visibility 10 miles    
Events      
Averages and records for this station are not official NWS values.
T = Trace of Precipitation, MM = Missing Value Source: NWS Daily Summary

Daily Weather History Graph

Daily Weather History Graph

Search for Another Location

Airport or City:

Trip Planner

Search our weather history database for the weather conditions in past years. The results will help you decide how hot, cold, wet, or windy it might be!

Date:

Astronomy

Jan. 17, 2014 Rise Set
Actual Time 7:22 AM EST 5:59 PM EST
Civil Twilight 6:57 AM EST 6:24 PM EST
Nautical Twilight 6:28 AM EST 6:52 PM EST
Astronomical Twilight 6:00 AM EST 7:21 PM EST
Moon 7:31 PM EST (1/17) 8:00 AM EST (1/17)
Length of Visible Light 11h 27m
Length of Day
10h 36m
Full, 98% of the Moon is Illuminated
Jan 17
Full
Jan 24
Last Quarter
Jan 30
New
Feb 6
First Quarter
Feb 14
Full

Hourly Weather History & Observations

Time (EST) Temp. Dew Point Humidity Pressure Visibility Wind Dir Wind Speed Gust Speed Precip Events Conditions
12:53 AM 48.9 °F 35.1 °F 59% 30.14 in 10.0 mi North 5.8 mph - N/A   Clear
1:53 AM 48.9 °F 37.9 °F 66% 30.13 in 10.0 mi North 5.8 mph - N/A   Clear
2:53 AM 50.0 °F 39.0 °F 66% 30.14 in 10.0 mi North 3.5 mph - N/A   Clear
3:53 AM 50.0 °F 39.0 °F 66% 30.15 in 10.0 mi Calm Calm - N/A   Clear
4:53 AM 50.0 °F 43.0 °F 77% 30.15 in 10.0 mi NNE 3.5 mph - N/A   Clear
5:53 AM 50.0 °F 44.1 °F 80% 30.15 in 10.0 mi NNE 3.5 mph - N/A   Clear
6:53 AM 50.0 °F 43.0 °F 77% 30.16 in 10.0 mi ESE 5.8 mph - N/A   Clear
7:53 AM 50.0 °F 41.0 °F 71% 30.18 in 10.0 mi East 4.6 mph - N/A   Clear
8:53 AM 50.0 °F 41.0 °F 71% 30.20 in 10.0 mi SE 5.8 mph - N/A   Clear
9:53 AM 51.1 °F 39.9 °F 66% 30.23 in 10.0 mi South 3.5 mph - N/A   Clear
10:53 AM 53.1 °F 41.0 °F 64% 30.23 in 10.0 mi East 3.5 mph - N/A   Clear
11:53 AM 55.0 °F 42.1 °F 62% 30.22 in 10.0 mi SE 4.6 mph - N/A   Clear
12:53 PM 55.9 °F 44.1 °F 64% 30.18 in 10.0 mi SSE 6.9 mph - N/A   Clear
1:53 PM 57.0 °F 45.0 °F 64% 30.14 in 10.0 mi SSE 8.1 mph - N/A   Clear
2:53 PM 61.0 °F 48.0 °F 62% 30.12 in 10.0 mi South 11.5 mph - N/A   Clear
3:53 PM 60.1 °F 50.0 °F 69% 30.12 in 10.0 mi South 11.5 mph - N/A   Clear
4:53 PM 61.0 °F 46.9 °F 60% 30.13 in 10.0 mi WSW 8.1 mph - N/A   Clear
5:53 PM 59.0 °F 48.0 °F 67% 30.13 in 10.0 mi SW 5.8 mph - N/A   Clear
6:53 PM 57.9 °F 50.0 °F 75% 30.14 in 10.0 mi West 4.6 mph - N/A   Clear
7:53 PM 55.9 °F 50.0 °F 80% 30.14 in 10.0 mi WSW 5.8 mph - N/A   Clear
8:53 PM 57.0 °F 51.1 °F 81% 30.16 in 10.0 mi WSW 5.8 mph - N/A   Clear
9:53 PM 57.9 °F 52.0 °F 81% 30.17 in 10.0 mi SW 4.6 mph - N/A   Mostly Cloudy
10:53 PM 59.0 °F 55.0 °F 87% 30.16 in 10.0 mi Calm Calm - 0.00 in   Overcast
11:53 PM 55.9 °F 55.0 °F 97% 30.14 in 10.0 mi SSW 5.8 mph - N/A   Partly Cloudy